FW9816 Weather Reports


time (UTC)temp
C
wind
direction
speed
KPH
gust
KPH
rain 1hr
cm
rain 24hr
cm
rain mn
cm
humidity
%
barometer
mb
20260507191555 16 158 3.2 9.7 0.00 0.38 0.05 37 1007.3
20260507184558 17 265 3.2 11.3 0.00 0.41 0.05 38 1007.6
20260507183056 17 174 1.6 9.7 0.00 0.41 0.05 35 1007.9
20260507181555 17 40 3.2 8.0 0.00 0.41 0.05 36 1007.9
20260507180055 17 254 3.2 11.3 0.00 0.41 0.05 36 1007.9
20260507174602 17 92 3.2 9.7 0.00 0.41 0.05 33 1007.9
20260507173129 17 294 3.2 9.7 0.00 0.41 0.05 36 1007.9
20260507171559 17 221 4.8 11.3 0.00 0.41 0.05 33 1007.9
20260507170054 16 253 4.8 9.7 0.00 0.41 0.05 39 1008.1
20260507164557 16 19 3.2 8.0 0.00 0.41 0.05 40 1008.4
20260507163055 16 269 3.2 12.9 0.00 0.41 0.05 43 1008.6
20260507161602 16 244 3.2 11.3 0.00 0.41 0.05 48 1008.7
20260507154556 16 240 3.2 9.7 0.00 0.41 0.05 49 1008.7
20260507153059 15 275 3.2 12.9 0.00 0.41 0.05 49 1008.8
20260507151558 15 0 1.6 6.4 0.00 0.41 0.05 60 1009.1
20260507150054 15 229 1.6 6.4 0.00 0.41 0.05 61 1009.2
20260507144612 13 0 0.0 6.4 0.00 0.41 0.05 67 1009.3
20260507143100 14 265 1.6 11.3 0.00 0.41 0.05 68 1009.4
20260507141559 14 342 1.6 8.0 0.00 0.41 0.05 66 1009.4
20260507140053 13 282 1.6 6.4 0.00 0.41 0.05 69 1009.3
20260507134555 13 241 0.0 8.0 0.00 0.41 0.05 71 1009.0
20260507133139 13 165 1.6 6.4 0.00 0.41 0.05 71 1009.1
20260507131555 13 252 1.6 14.5 0.00 0.41 0.05 73 1009.2
20260507124555 12 56 1.6 6.4 0.00 0.41 0.05 75 1009.5
20260507123052 11 238 1.6 4.8 0.00 0.41 0.05 82 1009.5
20260507121552 10 0 1.6 6.4 0.00 0.41 0.05 85 1009.7
20260507120052 10 0 1.6 4.8 0.00 0.41 0.05 86 1009.8
20260507114600 9 189 0.0 3.2 0.00 0.41 0.05 90 1009.7
20260507113052 8 0 0.0 1.6 0.00 0.41 0.05 91 1009.5
20260507111553 8 0 0.0 1.6 0.00 0.41 0.05 93 1009.5
20260507110057 8 142 0.0 1.6 0.00 0.41 0.05 94 1009.3
20260507104554 8 0 0.0 1.6 0.00 0.41 0.05 94 1009.4
20260507103054 8 0 0.0 1.6 0.00 0.41 0.05 95 1009.1
20260507101555 8 0 0.0 3.2 0.00 0.41 0.05 94 1008.8
20260507100054 8 0 0.0 1.6 0.03 0.41 0.05 94 1008.5
20260507094559 8 0 0.0 3.2 0.03 0.41 0.05 94 1008.5
20260507093050 8 0 0.0 1.6 0.03 0.41 0.05 94 1008.9
20260507091552 8 211 0.0 3.2 0.03 0.41 0.05 93 1009.1
20260507090057 8 211 0.0 1.6 0.00 0.38 0.03 93 1009.2
20260507084557 8 0 0.0 0.0 0.00 0.38 0.03 92 1009.2
20260507083056 8 0 0.0 0.0 0.03 0.38 0.03 93 1009.1
20260507081554 8 0 0.0 0.0 0.03 0.38 0.03 93 1008.8
20260507080101 8 211 0.0 1.6 0.03 0.38 0.03 92 1008.8
20260507074551 9 0 0.0 3.2 0.03 0.38 0.03 92 1008.9
20260507073103 9 0 0.0 3.2 0.00 0.36 0.00 92 1008.8
20260507071553 9 0 0.0 0.0 0.00 0.36 0.00 92 1008.6
20260507070211 10 0 0.0 3.2 0.00 0.36 0.00 93 1008.1
20260507064555 10 0 0.0 1.6 0.00 0.36 0.00 95 1007.8
20260507063049 10 0 0.0 0.0 0.00 0.36 0.00 95 1007.9
20260507061552 10 0 0.0 0.0 0.00 0.36 0.00 95 1008.2
20260507060056 10 0 0.0 1.6 0.00 0.36 0.00 95 1008.1
20260507054551 11 0 0.0 3.2 0.00 0.36 0.00 95 1008.2
20260507053058 11 0 0.0 1.6 0.00 0.36 0.00 95 1008.7
20260507051555 11 0 0.0 1.6 0.00 0.36 0.00 96 1008.5
20260507050050 12 0 0.0 4.8 0.00 0.36 0.00 96 1008.4
20260507044601 12 0 0.0 4.8 0.00 0.36 0.00 97 1008.3
20260507043051 12 0 0.0 3.2 0.00 0.36 0.00 97 1008.2
20260507041552 12 51 0.0 3.2 0.00 0.36 0.00 96 1008.3
20260507040058 13 0 1.6 3.2 0.03 0.36 0.00 97 1008.1
20260507034556 13 0 0.0 4.8 0.03 0.36 0.36 97 1008.1
20260507033102 13 0 0.0 4.8 0.03 0.36 0.36 97 1007.8
20260507031600 13 0 0.0 3.2 0.03 0.36 0.36 97 1007.5
20260507030107 14 0 0.0 4.8 0.00 0.33 0.33 97 1007.4
20260507024608 14 266 0.0 1.6 0.00 0.33 0.33 97 1007.1
20260507023053 14 266 0.0 8.0 0.00 0.33 0.33 97 1007.2
20260507021557 14 0 0.0 8.0 0.00 0.33 0.33 97 1007.1
20260507014605 14 0 1.6 6.4 0.00 0.33 0.33 97 1007.0
20260507013102 14 15 0.0 4.8 0.00 0.33 0.33 97 1007.0
20260507011557 14 50 0.0 6.4 0.00 0.33 0.33 97 1007.2
20260507010059 14 302 1.6 9.7 0.00 0.33 0.33 97 1007.2
20260507004552 14 348 1.6 11.3 0.00 0.33 0.33 97 1007.1
20260507003104 14 5 1.6 12.9 0.00 0.33 0.33 97 1007.2
20260507001602 14 49 1.6 6.4 0.03 0.33 0.33 97 1007.0
20260507000053 14 40 3.2 9.7 0.05 0.33 0.33 97 1007.1
20260506234604 14 0 3.2 11.3 0.13 0.33 0.33 97 1007.1
20260506233058 14 11 1.6 11.3 0.13 0.33 0.33 96 1007.0
20260506231557 14 24 1.6 8.0 0.10 0.30 0.30 96 1007.0
20260506230059 14 16 3.2 14.5 0.10 0.28 0.28 96 1007.0
20260506224559 14 12 1.6 9.7 0.03 0.20 0.20 96 1007.2
20260506223051 14 69 3.2 6.4 0.03 0.20 0.20 96 1007.2
20260506221553 15 49 1.6 8.0 0.03 0.20 0.20 95 1007.2
20260506220054 15 336 1.6 14.5 0.00 0.18 0.18 95 1007.3
20260506214551 15 19 1.6 12.9 0.03 0.18 0.18 95 1007.5
20260506213051 15 0 1.6 14.5 0.03 0.18 0.18 95 1007.6
20260506211554 15 323 3.2 16.1 0.05 0.18 0.18 94 1007.7
20260506210055 15 22 3.2 16.1 0.08 0.18 0.18 94 1007.9
20260506204553 15 89 3.2 11.3 0.05 0.15 0.15 94 1008.0
20260506203052 15 21 1.6 16.1 0.05 0.15 0.15 94 1008.0
20260506201556 15 51 3.2 14.5 0.08 0.13 0.13 93 1008.0
20260506200051 15 41 6.4 17.7 0.08 0.10 0.10 91 1007.9
20260506194552 16 328 3.2 9.7 0.10 0.10 0.10 92 1007.9
20260506193054 16 29 3.2 14.5 0.10 0.10 0.10 90 1008.2